EWG8HR EDDS-EDDH

Flight info

Callsign EWG8HR
Flight time N/A
Altitude 34000
Route OKIBA4H OKIBA N851 RIMKI Z99 LOHRE DCT MASEK DCT ELNAT P605 NOLGO NOLGO3D
Aircraft A321/M-SDE3FGHIRWY/LB1

Departure

Time 2026-05-01 15:06
Airport Stuttgart Airport (EDDS)

Arrival

Time N/A
Airport Hamburg Helmut Schmidt Airport (EDDH)
Time Latitude Longitude Altitude Speed Heading
2026-05-01 14:18 48.68893 9.19430 1315 ft 0 kts 343°
2026-05-01 14:56 48.68889 9.19431 1315 ft 3 kts 343°
2026-05-01 14:56 48.68864 9.19442 1314 ft 4 kts 344°
2026-05-01 14:57 48.68842 9.19451 1313 ft 4 kts 357°
2026-05-01 14:57 48.68812 9.19412 1313 ft 1 kts 74°
2026-05-01 15:02 48.68813 9.19416 1313 ft 2 kts 74°
2026-05-01 15:02 48.68815 9.19425 1313 ft 4 kts 74°
2026-05-01 15:02 48.68842 9.19567 1310 ft 13 kts 73°
2026-05-01 15:02 48.68872 9.19726 1307 ft 19 kts 75°
2026-05-01 15:03 48.68868 9.19882 1301 ft 14 kts 150°
2026-05-01 15:03 48.68765 9.19952 1293 ft 19 kts 160°
2026-05-01 15:03 48.68673 9.19992 1288 ft 12 kts 164°
2026-05-01 15:03 48.68590 9.20072 1283 ft 16 kts 116°
2026-05-01 15:04 48.68609 9.20203 1280 ft 0 kts 73°
2026-05-01 15:04 48.68611 9.20209 1280 ft 0 kts 73°
2026-05-01 15:05 48.68618 9.20245 1279 ft 16 kts 73°
2026-05-01 15:05 48.68722 9.20796 1268 ft 90 kts 74°
2026-05-01 15:05 48.68956 9.22031 1241 ft 151 kts 74°
2026-05-01 15:06 48.69290 9.23772 1443 ft 178 kts 72°
2026-05-01 15:06 48.69636 9.25553 2185 ft 177 kts 75°
2026-05-01 15:06 48.69982 9.27429 2545 ft 196 kts 75°
2026-05-01 15:06 48.70368 9.29525 2733 ft 218 kts 75°
2026-05-01 15:07 48.70801 9.31861 2898 ft 243 kts 75°
2026-05-01 15:07 48.71286 9.34450 3209 ft 263 kts 74°
2026-05-01 15:07 48.71794 9.37146 3798 ft 270 kts 74°
2026-05-01 15:07 48.72314 9.39898 4486 ft 274 kts 74°
2026-05-01 15:08 48.72831 9.42620 5136 ft 277 kts 74°
2026-05-01 15:08 48.73374 9.45467 5801 ft 280 kts 74°
2026-05-01 15:08 48.73965 9.48265 6423 ft 283 kts 65°
2026-05-01 15:08 48.75137 9.50713 7016 ft 287 kts 40°
2026-05-01 15:09 48.76857 9.52224 7586 ft 289 kts 17°
2026-05-01 15:09 48.78850 9.52567 8140 ft 291 kts 355°
2026-05-01 15:09 48.80883 9.52342 8705 ft 294 kts 355°
2026-05-01 15:09 48.82929 9.52100 9253 ft 297 kts 355°
2026-05-01 15:10 48.84967 9.51858 9774 ft 299 kts 355°
2026-05-01 15:10 48.89239 9.51362 10335 ft 322 kts 355°
2026-05-01 15:10 48.91522 9.51103 10466 ft 336 kts 355°
2026-05-01 15:11 48.93898 9.50812 10593 ft 349 kts 352°
2026-05-01 15:11 48.98586 9.48475 11158 ft 361 kts 334°
2026-05-01 15:11 49.00852 9.46808 11550 ft 363 kts 334°
2026-05-01 15:12 49.03145 9.45124 11932 ft 366 kts 334°
2026-05-01 15:12 49.07727 9.41762 12653 ft 370 kts 334°
2026-05-01 15:12 49.10058 9.40051 12998 ft 373 kts 334°
2026-05-01 15:13 49.17122 9.34838 13975 ft 379 kts 334°
2026-05-01 15:14 49.22028 9.31838 14561 ft 383 kts 348°
2026-05-01 15:14 49.24682 9.31358 14841 ft 386 kts 357°
2026-05-01 15:14 49.30069 9.30959 15378 ft 389 kts 356°
2026-05-01 15:15 49.35461 9.30598 15864 ft 393 kts
2026-05-01 15:15 49.40923 9.31342 16318 ft 396 kts
2026-05-01 15:16 49.46433 9.32166 16753 ft 399 kts
2026-05-01 15:16 49.51972 9.32990 17171 ft 402 kts
2026-05-01 15:17 49.53609 9.33230 17292 ft 402 kts
2026-05-01 15:18 49.62023 9.34471 17875 ft 407 kts
2026-05-01 15:18 49.64838 9.34893 18062 ft 408 kts
2026-05-01 15:19 49.73320 9.36151 18587 ft 412 kts
2026-05-01 15:19 49.78937 9.37918 18887 ft 414 kts 14°
2026-05-01 15:19 49.81739 9.38999 19037 ft 415 kts 14°
2026-05-01 15:20 49.87354 9.41170 19313 ft 417 kts 14°
2026-05-01 15:20 49.90178 9.42255 19444 ft 418 kts 14°
2026-05-01 15:20 49.93001 9.43341 19569 ft 419 kts 14°
2026-05-01 15:21 49.95837 9.44435 19696 ft 420 kts 14°
2026-05-01 15:21 49.98670 9.45529 19822 ft 420 kts 14°
2026-05-01 15:21 50.01510 9.46631 19947 ft 421 kts 14°
2026-05-01 15:21 50.03030 9.47221 20014 ft 421 kts 14°
2026-05-01 15:22 50.08566 9.48961 20253 ft 421 kts
2026-05-01 15:22 50.11480 9.49451 20379 ft 421 kts
2026-05-01 15:22 50.14390 9.49939 20503 ft 421 kts
2026-05-01 15:23 50.17313 9.50425 20628 ft 421 kts
2026-05-01 15:23 50.20222 9.50905 20753 ft 422 kts
2026-05-01 15:23 50.23142 9.51389 20878 ft 422 kts
2026-05-01 15:23 50.26059 9.51877 21003 ft 421 kts
2026-05-01 15:24 50.28971 9.52371 21126 ft 421 kts
2026-05-01 15:24 50.31890 9.52867 21251 ft 421 kts
2026-05-01 15:24 50.34797 9.53357 21375 ft 421 kts
2026-05-01 15:24 50.37673 9.53843 21498 ft 421 kts
2026-05-01 15:25 50.40618 9.54340 21624 ft 420 kts
2026-05-01 15:25 50.43511 9.54829 21748 ft 420 kts
2026-05-01 15:25 50.46367 9.55313 21892 ft 419 kts
2026-05-01 15:25 50.49302 9.55808 21993 ft 419 kts
2026-05-01 15:26 50.52212 9.56298 22010 ft 421 kts
2026-05-01 15:26 50.55135 9.56791 22009 ft 424 kts
2026-05-01 15:26 50.58038 9.57288 22010 ft 427 kts
2026-05-01 15:26 50.61004 9.57799 22010 ft 429 kts
2026-05-01 15:27 50.63980 9.58311 22010 ft 431 kts
2026-05-01 15:27 50.66964 9.58822 22009 ft 433 kts
2026-05-01 15:27 50.69976 9.59340 22010 ft 435 kts
2026-05-01 15:28 50.76011 9.60397 22009 ft 436 kts
2026-05-01 15:28 50.79022 9.60972 22009 ft 437 kts
2026-05-01 15:28 50.82027 9.61569 22194 ft 433 kts
2026-05-01 15:29 50.86947 9.62552 22603 ft 426 kts
2026-05-01 15:29 50.90810 9.63312 22910 ft 421 kts
2026-05-01 15:29 50.96628 9.64442 23010 ft 423 kts
2026-05-01 15:30 51.01510 9.65397 23009 ft 426 kts
2026-05-01 15:31 51.14360 9.67904 23009 ft 433 kts
2026-05-01 15:31 51.19378 9.68886 23009 ft 434 kts
2026-05-01 15:32 51.26347 9.70240 23009 ft 434 kts
2026-05-01 15:32 51.31323 9.71244 23009 ft 435 kts
2026-05-01 15:33 51.40323 9.73013 23009 ft 434 kts
2026-05-01 15:34 51.49312 9.74736 23009 ft 434 kts